Location: Newark
(45.2862°N, 9.8850°E)
Time: 10:49:23
(UTC+00:00)

ISS - Pass Details

Date: 24 December 2019
Orbit: 415 x 421 km, 51.6° (Epoch: 23 January)

Event Time Altitude Azimuth Distance (km) Brightness Sun altitude
Exits shadow 04:27:15 14° 159° (SSE) 1,255 -1.1 -25.4°
Maximum altitude 04:28:24 16° 134° (SE) 1,156 -0.9 -25.2°
Drops below altitude 10° 04:30:34 10° 93° (E) 1,487 0.1 -24.8°
Sets 04:33:12 0° 72° (ENE) 2,355 1.1 -24.4°
